MAROC TUBSAT

导读

MAROC TUBSAT卫星,由德国(DE)发射,于2001年12月10日08:00进入太空,是德国柏林工业大学与摩洛哥合作开发的微小卫星项目。作为技术试验与对地观测平台,它承载了摩洛哥首次进入太空的航天探索任务,验证了微型卫星的姿态控制、通信等关键技术,同时提供对地遥感数据,推动了摩洛哥航天领域起步,也为国际微小卫星合作提供了实践经验。

基本信息
目录编号:
27004
目录名称:
MAROC TUBSAT
国际标识:
2001-056D
轨道中心:
EARTH
卫星名称:
MAROC TUBSAT
卫星全名:
--
卫星状态:
在轨 (已飞行8982 天)
发射日期:
2001-12-10 UTC
国别 :
德国 (DE)
星等 :
--
轨道信息
数据来源 国际轨道数据
星历时间: 2026-07-14T01:26:20+0800
12小时前
查看轨道信息
半长轴: 7376.763km
偏心率: 0.002061
轨道倾角: 99.810°
近地点辐角 75.718°
升交点赤经 12.088°
平近点角 348.010°
近地点: 983.422km
远地点: 1013.83km
周期: 105.089分钟
每日圈数: 13.702635
详细信息
使用方式:
暂无
2D轨道图
3D轨道图
轨道高度分析图
轨道倾角分析图
轨道综合分析图
查看轨道综合分析图